Location: Newark
(42.8481°N, 0.4872°E)
Time: 23:11:53
(UTC+00:00)

Transit 2A Rocket - Pass Details

Date: 03 November 2020
Orbit: 588 x 914 km, 66.7° (Epoch: 29 November)

Event Time Altitude Azimuth Distance (km) Brightness Sun altitude
Rises 06:31:01 0° 162° (SSE) 3,530 9.0 -1.6°
Reaches altitude 10° 06:34:25 10° 143° (SE) 2,596 8.8 -1.0°
Maximum altitude 06:38:11 17° 104° (ESE) 2,115 9.0 -0.3°
Drops below altitude 10° 06:41:53 10° 66° (ENE) 2,562 8.5 0.3°
Sets 06:45:12 0° 47° (NE) 3,466 8.8 0.9°
